CALSPHERE 1 1 00900U 64063C 26246.97696213 .00000396 00000+0 39316-3 0 9993 2 00900 90.2173 73.5972 0027668 56.3692 110.4514 13.76694713 82267 CALSPHERE 2 1 00902U 64063E 26247.04029852 .00000052 00000+0 64785-4 0 9991 2 00902 90.2289 77.6531 0018702 4.7376 157.0022 13.52905508866923 LCS 1 1 01361U 65034C 26246.73245112 .00000012 00000+0 42231-3 0 9991 2 01361 32.1466 350.5329 0011443 39.9867 320.1472 9.89310632217669 TEMPSAT 1 1 01512U 65065E 26246.90845582 .00000041 00000+0 63471-4 0 9991 2 01512 90.0038 212.6044 0070775 29.0519 347.7518 13.33597847970542 CALSPHERE 4A 1 01520U 65065H 26247.09343111 .00000052 00000+0 83043-4 0 9991 2 01520 89.8925 121.6981 0067985 240.5232 286.5806 13.36289658973243 OPS 5712 (P/L 160) 1 02826U 67053A 26247.15395204 .00004218 00000+0 58570-3 0 9991 2 02826 69.9155 204.5987 0004385 277.6407 82.4243 14.78602762 77902 OPS 5712 (P/L 153) 1 02874U 67053H 26247.10806786 .00000000 00000+0 38249-4 0 9998 2 02874 69.9744 306.1457 0004507 94.3487 265.8134 13.96838025 17810 RIGIDSPHERE 2 (LCS 4) 1 05398U 71067E 26247.17641492 .00000307 00000+0 93885-4 0 9997 2 05398 87.6231 316.8882 0058490 332.7217 27.0913 14.37948052885232 COSMOS 2493 (SKRL-756 1) 1 39490U 13078A 26247.14505726 .00001589 00000+0 11747-3 0 9990 2 39490 82.4149 183.9237 0012426 345.4591 14.6274 15.02507982689819 COSMOS 2494 (SKRL-756 2) 1 39491U 13078B 26247.13268183 .00002217 00000+0 15296-3 0 9995 2 39491 82.4137 172.9946 0014442 301.7359 58.2460 15.05268908690682